Theta_e
342 335 332 328 327 327 329 332 332 327 326 328 330 331 331 331 330 329 328 327 325 323 320 318 317 316 315 314 313 313 313 314 316 318 322 325 325 327 326 326 333 332 322
342 335 333 331 329 328 327 327 327 328 329 331 331 331 331 329 327 325 322 318 315 313 313 312 310 308 307 308 308 309 310 311 314 317 327 331 329 326 326 325 325 324 323
342 336 334 333 331 330 329 330 330 331 331 332 331 330 325 321 319 318 314 312 312 310 307 307 307 307 307 307 307 307 308 309 313 325 326 333 330 324 325 325 325 325 325
341 336 335 334 333 332 332 332 332 332 332 331 326 320 317 316 314 312 312 310 307 308 308 308 309 309 309 309 309 310 309 308 315 325 328 328 331 325 325 324 321 321 325
339 338 335 334 333 332 332 332 332 331 330 324 319 316 315 311 311 312 309 308 309 309 310 310 311 311 311 312 311 312 312 313 320 323 325 326 330 324 322 320 319 319 319
341 340 335 334 333 333 333 332 331 329 323 319 316 314 311 312 312 310 310 310 311 312 312 312 312 311 310 310 309 309 310 317 320 321 322 325 320 320 319 317 318 319 320
339 337 334 334 333 333 333 330 328 322 318 316 315 311 312 312 311 311 311 312 312 311 311 311 310 310 310 310 311 311 312 315 318 317 318 321 314 316 316 316 315 317 319
337 337 335 334 333 332 328 326 322 319 316 316 312 312 313 312 313 313 313 312 311 312 311 311 311 311 313 313 313 313 313 316 320 319 318 320 311 310 309 309 310 310 313
336 336 336 334 331 327 324 320 318 316 316 313 312 313 314 314 313 314 313 312 312 312 312 312 313 313 313 314 314 314 314 318 320 320 320 320 313 313 313 312 310 309 309
335 336 334 332 331 322 318 317 315 316 314 313 315 316 316 314 314 315 315 313 313 312 313 314 314 314 314 314 314 313 316 319 319 319 320 319 314 312 310 311 312 312 311
335 332 331 330 330 329 320 315 315 315 315 317 318 317 323 324 324 324 316 314 314 313 314 315 315 315 315 320 319 316 317 318 318 318 318 317 315 314 313 311 309 310 312
330 328 329 329 328 327 326 317 324 316 324 327 327 323 329 328 328 327 317 315 314 314 315 316 317 318 321 320 319 318 317 317 317 316 316 315 314 314 313 312 310 308 309
325 325 326 327 326 325 325 326 325 327 328 329 329 330 328 328 328 327 327 326 325 321 323 322 322 321 320 318 318 317 317 317 317 316 316 314 313 313 312 310 308 307 307
324 324 325 324 323 326 324 325 327 327 328 329 328 326 329 329 327 326 326 326 323 323 323 322 321 320 319 318 317 317 317 316 316 315 315 314 313 311 310 307 306 305 306
325 324 324 323 319 325 328 328 329 329 329 328 328 327 327 326 324 323 325 324 323 322 321 320 319 318 318 317 316 316 315 315 314 314 313 313 311 309 307 304 303 303 303
326 326 326 326 327 329 330 330 328 327 328 329 327 327 327 325 323 327 327 324 321 319 318 317 316 315 314 315 314 314 313 313 312 311 311 310 308 307 306 303 301 301 301
328 328 329 329 329 329 327 325 322 320 322 323 323 323 323 324 325 325 323 320 318 316 315 312 312 312 312 312 311 310 310 308 308 308 308 307 307 307 305 303 301 299 299
330 331 330 329 329 327 325 321 319 317 318 320 321 321 321 321 321 321 319 317 313 311 311 311 309 308 307 306 306 306 305 304 305 305 304 305 306 305 303 303 301 299 297
331 332 330 328 326 324 324 325 322 319 320 316 318 317 316 314 314 313 312 311 311 311 309 307 306 305 304 304 304 305 303 303 304 303 304 305 305 303 303 302 301 299 300
329 332 331 330 327 326 324 324 323 319 319 318 314 312 311 311 310 311 312 311 309 307 307 306 305 304 303 303 303 303 303 302 302 303 305 305 303 302 302 301 300 300 300
331 332 331 328 325 326 325 319 321 321 317 313 313 311 311 311 311 310 310 308 307 306 305 304 304 303 303 302 302 302 302 302 301 303 303 303 302 301 301 300 300 300 299
332 330 330 326 326 327 325 323 320 318 316 315 314 313 312 311 310 308 309 307 306 305 304 304 304 303 302 301 301 301 301 301 301 301 301 301 300 299 299 299 299 299 299
329 328 329 329 326 324 320 319 318 317 316 314 314 313 312 310 309 308 307 306 304 303 303 303 303 302 301 301 301 300 300 300 300 299 299 298 298 298 297 298 297 297 297
331 329 328 324 321 319 318 317 317 316 316 316 315 314 312 309 308 307 305 304 304 304 303 303 302 302 301 301 300 300 299 299 298 298 297 297 297 296 296 296 296 295 295
326 324 321 320 319 319 318 318 318 317 317 315 313 313 311 309 307 305 304 304 303 303 302 302 301 301 300 299 299 299 298 298 298 297 296 296 296 295 295 295 295 294 294
323 321 320 320 319 318 318 318 317 317 314 313 312 311 309 307 305 304 304 303 303 302 301 300 299 299 299 299 299 298 298 297 296 296 295 295 295 294 294 294 293 293 293
Wind_Speed
20 24 22 20 19 18 17 17 15 13 12 10 9 8 7 7 6 5 5 4 4 5 5 5 5 5 6 6 6 7 7 7 7 8 9 8 6 7 6 5 13 7 7
23 26 23 21 19 19 17 16 13 12 11 9 8 7 6 4 4 4 3 3 4 4 5 5 5 6 7 9 9 9 9 9 9 9 9 6 8 7 6 6 5 8 8
21 25 24 22 20 18 16 14 12 11 10 8 8 6 5 3 3 3 4 4 5 6 6 7 7 8 9 9 10 10 11 11 13 16 11 4 9 9 6 7 9 9 9
22 23 22 21 19 17 15 13 11 10 9 8 7 6 5 5 5 5 6 6 7 7 7 7 8 9 10 11 11 11 11 12 13 14 8 6 9 6 7 9 11 10 9
19 19 20 21 18 16 14 12 10 10 8 7 6 5 6 7 7 7 8 8 7 6 6 6 7 8 9 11 11 11 11 12 15 12 7 4 10 8 8 10 11 12 10
20 21 20 19 16 14 12 11 10 9 8 7 7 7 8 9 9 9 8 7 6 6 6 7 8 9 11 13 13 14 13 14 13 8 8 7 8 9 10 10 11 11 11
20 15 20 17 15 13 12 11 10 9 8 8 8 8 9 9 9 8 8 7 7 8 9 9 9 11 13 14 15 16 16 17 14 10 8 6 11 9 10 10 10 10 10
17 19 19 18 16 15 12 11 10 9 9 9 8 9 9 9 8 7 7 7 9 8 8 8 8 10 11 12 12 14 15 14 11 10 9 10 14 13 13 12 12 11 11
17 18 17 16 15 14 13 11 10 10 9 9 8 9 8 8 7 7 7 7 7 6 6 6 6 7 8 10 10 12 13 15 13 11 9 7 16 16 16 16 15 14 13
17 17 16 13 12 12 13 12 11 11 10 9 9 8 8 7 7 7 5 3 3 3 2 3 5 7 7 9 10 10 12 14 11 10 10 13 18 19 18 18 18 17 16
17 18 15 14 12 11 10 13 12 11 9 9 8 9 10 5 6 4 3 1 1 3 4 7 8 8 10 12 15 14 11 10 13 11 12 15 19 21 22 21 21 20 20
16 14 14 13 13 14 11 12 9 10 8 6 4 6 5 4 6 4 6 6 6 6 7 9 9 10 9 7 10 12 11 14 13 14 17 21 23 24 23 25 25 23 22
15 13 13 13 14 13 12 11 9 8 7 6 5 4 5 2 1 4 6 7 6 9 6 9 9 7 10 11 9 11 14 14 14 15 19 25 29 27 27 28 26 24 24
14 14 14 13 14 11 11 10 9 7 6 4 6 3 3 4 6 3 5 5 7 6 9 8 8 10 10 11 12 13 14 15 16 18 18 26 28 30 29 27 23 22 23
15 15 14 14 13 13 12 10 9 6 6 8 5 5 5 4 5 7 9 4 6 7 8 8 8 9 12 14 15 17 18 19 18 19 19 27 27 29 27 22 22 22 23
16 16 15 14 14 13 12 11 7 7 1 2 7 8 10 11 10 4 4 3 3 4 5 7 11 13 14 16 18 19 20 20 21 20 18 19 25 24 25 22 22 23 23
15 16 16 16 15 14 13 11 8 4 3 1 5 5 6 5 5 7 6 4 6 7 12 15 16 14 16 17 19 20 20 20 20 19 18 17 17 22 22 26 24 23 25
16 16 16 16 17 17 16 14 12 14 12 11 12 5 1 2 4 4 5 6 8 10 10 11 12 14 16 17 18 18 20 20 20 19 19 16 16 16 17 22 27 28 26
16 17 16 16 16 15 13 16 20 17 15 12 5 1 2 1 1 4 6 7 7 8 8 10 13 14 17 18 19 19 22 20 19 21 18 18 16 16 17 19 24 23 23
16 17 16 17 19 12 16 16 14 10 14 10 6 3 3 3 6 3 5 6 7 8 9 12 14 15 17 19 21 21 21 22 23 19 15 16 17 16 19 19 20 18 20
17 19 20 20 9 9 11 9 11 13 10 6 3 4 4 1 2 4 3 6 10 10 13 14 15 17 18 19 22 23 22 22 18 18 21 18 16 19 20 19 20 19 20
19 20 20 13 12 9 8 9 11 11 8 6 6 2 2 5 6 3 9 7 9 12 14 15 18 19 20 19 22 25 28 26 20 15 15 20 22 22 21 22 21 20 20
17 17 16 14 13 14 14 13 11 10 10 7 4 3 4 6 8 9 7 9 12 13 15 17 17 19 23 23 20 23 27 26 26 23 25 25 25 21 24 21 22 20 21
17 16 16 18 18 17 15 12 12 7 7 6 4 7 6 5 4 6 9 11 12 14 16 17 19 21 22 24 23 20 20 23 25 27 23 24 22 22 20 23 22 22 23
20 20 18 18 16 16 13 11 10 7 6 5 4 6 7 9 9 10 11 12 14 16 18 21 21 22 23 23 23 22 21 21 21 22 27 24 23 22 24 22 23 23 23
20 19 17 16 15 14 11 10 9 7 6 5 5 7 9 10 12 12 13 14 17 19 20 22 23 23 24 23 22 20 18 18 20 20 22 23 22 24 23 24 25 24 24
Wind_Direction
152 158 152 146 141 139 140 143 144 142 143 142 140 131 118 109 97 84 70 54 21 9 11 11 3 1 1 2 1 355 354 360 11 26 34 24 16 20 34 60 68 5 2
152 157 153 148 147 144 145 145 147 148 152 147 134 128 119 105 90 74 60 40 36 41 39 35 35 38 38 35 31 29 28 29 32 46 47 30 41 10 25 25 12 9 6
147 157 156 148 152 148 147 150 153 156 152 146 145 144 136 120 105 98 85 80 78 73 74 70 62 53 46 42 37 33 32 37 54 60 56 170 351 345 0 2 1 359 356
149 155 159 151 154 152 154 156 157 155 156 158 159 152 136 131 122 113 104 99 91 86 73 58 48 41 39 33 29 30 37 45 62 55 46 40 341 11 10 3 357 356 359
143 138 164 156 154 155 158 152 156 158 160 159 155 145 142 134 130 125 115 104 95 83 67 57 51 44 40 36 32 29 38 58 56 45 33 64 29 352 4 358 354 349 346
146 167 158 153 155 153 151 154 158 161 163 160 160 159 149 142 137 126 119 112 104 90 83 77 67 56 50 49 44 43 46 69 47 39 38 17 5 6 353 350 348 345 342
150 172 153 150 148 153 155 155 165 167 161 167 164 156 144 136 127 126 119 111 100 93 87 80 74 67 58 53 49 47 46 57 47 37 37 352 354 350 337 335 337 336 331
160 150 147 149 152 151 157 164 165 159 164 162 157 150 140 132 127 121 117 113 109 100 95 86 74 68 58 48 42 39 37 42 32 25 32 6 8 1 353 342 332 322 316
152 141 141 147 150 154 157 157 159 163 162 157 153 143 132 125 118 119 111 114 100 93 83 68 57 48 40 29 26 27 26 29 27 4 2 338 352 348 343 340 337 332 321
149 124 133 141 146 152 153 154 162 163 156 151 142 132 124 114 115 99 82 108 92 93 36 16 354 356 356 352 354 357 18 14 357 349 337 314 339 342 338 330 323 319 317
133 135 136 139 142 151 147 158 159 156 151 142 140 128 92 76 79 43 40 337 339 318 323 322 322 329 343 353 345 344 15 339 344 328 320 302 326 332 332 333 323 312 306
141 136 135 139 143 140 147 140 147 144 129 132 137 126 96 128 189 183 335 321 308 302 310 312 323 343 360 323 319 337 324 325 335 320 314 302 309 321 321 322 321 310 303
140 140 141 148 144 134 146 143 140 136 153 165 157 134 217 147 311 6 303 331 326 317 329 319 318 317 304 316 309 317 315 321 315 310 308 305 305 312 314 314 311 304 298
144 144 148 145 138 131 135 127 146 148 157 158 199 180 210 210 247 269 281 299 314 295 297 307 309 320 323 319 316 314 313 312 308 306 310 300 300 305 308 306 302 296 293
146 146 142 141 143 135 124 133 146 148 181 196 217 234 236 265 285 293 249 273 286 305 306 310 308 311 311 313 306 309 308 306 305 303 300 301 302 302 309 304 300 296 293
148 148 144 142 137 133 144 140 129 174 159 252 247 275 266 269 286 253 256 274 299 295 303 314 304 312 309 309 305 303 303 304 303 299 298 299 304 307 310 306 301 297 294
157 159 151 149 144 141 121 119 97 102 99 338 313 286 269 220 227 206 219 199 242 287 301 306 320 319 310 306 304 305 303 303 299 297 295 298 293 308 309 309 303 299 297
171 162 160 156 153 159 170 143 63 40 12 338 321 312 319 260 274 248 261 280 300 319 326 318 322 316 314 314 312 306 302 302 297 295 297 289 290 293 305 309 302 301 302
179 172 168 168 174 196 219 223 223 225 255 297 238 112 120 29 244 292 289 295 325 328 319 317 322 324 321 318 311 303 306 304 294 295 288 285 290 299 297 306 310 311 318
183 182 176 171 210 232 238 246 250 217 205 194 180 170 1 327 307 334 335 326 337 326 324 323 327 326 322 317 310 303 309 301 297 291 288 283 292 293 304 304 308 312 299
184 187 182 204 212 214 226 224 200 198 175 170 192 238 250 287 332 295 308 330 327 331 326 320 322 324 320 316 312 310 307 312 311 298 291 286 290 298 301 305 308 305 306
183 186 188 191 179 180 178 159 159 162 158 178 186 206 254 287 286 322 311 327 320 322 316 318 325 321 315 316 313 310 309 307 305 300 311 299 292 299 296 302 300 306 307
177 177 172 166 169 162 163 160 159 164 181 184 206 248 240 283 299 313 319 318 317 321 316 315 315 312 308 307 303 302 304 304 305 296 298 297 299 299 299 294 301 301 304
161 158 161 167 161 165 163 169 175 186 213 199 214 238 256 260 286 299 309 314 318 320 314 308 304 302 300 299 299 295 298 301 306 303 295 296 296 293 295 299 300 304 303
156 157 160 163 167 174 171 183 189 212 227 245 247 233 254 269 289 299 304 308 311 309 303 301 300 299 293 292 292 296 291 289 289 288 298 299 295 291 296 299 298 297 299
156 160 165 172 178 176 181 185 193 194 218 241 259 266 273 279 289 293 297 298 301 300 299 297 296 296 291 287 287 284 288 292 295 295 296 296 297 296 297 298 297 298 298